Regional Weather Roundup
Issued by NWS

Home | Current Version | Previous Version | Text Only | Print | Product List | Glossary On
Versions: 1 2 3 4 5 6 7 8 9 10 11 12 13 14 15 16 17 18 19 20 21 22 23 24 25 26 27 28 29 30 31 32 33 34 35 36 37 38 39 40 41 42 43 44 45 46 47 48 49 50
000
ASUS43 KMKX 241300
RWRWI

WISCONSIN REGIONAL WEATHER ROUNDUP
NATIONAL WEATHER SERVICE MILWAUKEE/SULLIVAN WI
800 AM CDT SUN SEP 24 2017

NOTE: "FAIR" INDICATES FEW OR NO CLOUDS BELOW 12,000 FEET WITH NO
SIGNIFICANT WEATHER AND/OR OBSTRUCTIONS TO VISIBILITY.

WIZ001-002-006>008-014>016-023>028-241400-
NORTHWEST WISCONSIN

CITY           SKY/WX    TMP DP  RH WIND       PRES   REMARKS
SUPERIOR ARPT  FOG       63  63 100 NE3       29.96S VSB 1/4
ASHLAND        MOSUNNY   64  63  96 CALM      29.97F
HAYWARD        SUNNY     70  63  78 SW6       29.99S
SIREN          CLEAR     70  63  79 S9        29.96S
CUMBERLAND     CLEAR     64  61  88 CALM      29.99S
RICE LAKE      SUNNY     67  63  87 SE6       30.01S
CHETEK         SUNNY     66  64  93 SE5       30.00S
LADYSMITH      SUNNY     69  63  80 SE3       30.04S
EAU CLAIRE     NOT AVBL
MENOMONIE      SUNNY     67  64  91 SE6       29.99F
NEW RICHMOND   CLEAR     69  61  76 S5        29.97S
OSCEOLA        CLEAR     70  62  75 S3        29.99S
$$

WIZ003>005-009-010-017-018-241400-
NORTH CENTRAL WISCONSIN

CITY           SKY/WX    TMP DP  RH WIND       PRES   REMARKS
MANITOWISH WTR NOT AVBL
ARBOR VITAE    SUNNY     72  66  82 S5        30.06S
WOODRUFF       SUNNY     72  66  82 S5        30.06S
RHINELANDER    SUNNY     65  64  97 CALM      30.09R
EAGLE RIVER    SUNNY     61  61 100 CALM      30.07S
LAND O LAKES   SUNNY     63  63 100 CALM      30.09S
PHILLIPS       SUNNY     68  64  86 S5        30.04S
TOMAHAWK       SUNNY     58  57  96 CALM      30.07S FOG
MEDFORD        SUNNY     64  61  90 SE3       30.06S
MERRILL          N/A     62  62 100 CALM      30.07S FOG
$$

WIZ029-030-035-036-043>047-241400-
CENTRAL WISCONSIN

CITY           SKY/WX    TMP DP  RH WIND       PRES   REMARKS
WAUSAU         SUNNY     66  64  93 E5        30.05S
MOSINEE        SUNNY     66  64  94 SE5       30.07S
MARSHFIELD     SUNNY     68  63  84 S3        30.05S
STEVENS POINT  SUNNY     62  62 100 CALM      30.07S FOG
WAUPACA        SUNNY     65  65  97 CALM      30.06F FOG
WAUTOMA        SUNNY     65  63  93 CALM      30.07S
WISC RAPIDS    SUNNY     71  64  78 S5        30.06S
CAMP DOUGLAS   NOT AVBL
$$

WIZ011>013-019>022-031-037>040-048>050-241400-
NORTHEAST WISCONSIN

CITY           SKY/WX    TMP DP  RH WIND       PRES   REMARKS
ANTIGO         SUNNY     68  65  93 CALM      30.09S
SHAWANO        SUNNY     68  65  90 CALM      30.07S
OCONTO         SUNNY     62  62  98 CALM      30.06F
STURGEON BAY   SUNNY     71  66  84 S10       30.09S
GREEN BAY      SUNNY     71  66  84 S5        30.07S
MANITOWOC      SUNNY     70  68  93 CALM      30.09S FOG
APPLETON       SUNNY     70  64  83 SE6       30.07R
CLINTONVILLE   SUNNY     64  63  94 CALM      30.07S FOG
OSHKOSH        SUNNY     70  67  90 S5        30.07S
$$

WIZ032>034-041-042-053>061-241400-
SOUTHWEST WISCONSIN

CITY           SKY/WX    TMP DP  RH WIND       PRES   REMARKS
LA CROSSE      SUNNY     72  66  81 SE5       30.02R
SPARTA         SUNNY     60  58  94 CALM      30.04S
VIROQUA        SUNNY     69  64  86 SE7       30.05S
BOSCOBEL       SUNNY     64  63  96 CALM      30.05S FOG
PRAIRIE DU CHI SUNNY     64  61  91 E5        30.04R
PLATTEVILLE    SUNNY     68  65  89 SE5       30.06S
$$

WIZ056-057-062-063-064-067-068-241400-
SOUTH CENTRAL WISCONSIN

CITY           SKY/WX    TMP DP  RH WIND       PRES   REMARKS
REEDSBURG      SUNNY     64  64 100 CALM      30.06S
BARABOO/DELLS  SUNNY     70  64  81 S5        30.06S
LONE ROCK      SUNNY     63  63 100 CALM      30.05S FOG
MINERAL POINT  SUNNY     70  66  88 SE6       30.07S
MADISON        SUNNY     68  65  90 CALM      30.06F
MIDDLETON      SUNNY     64  64 100 CALM      30.08S
WATERTOWN      SUNNY     66  66 100 CALM      30.08S
MONROE         SUNNY     70  61  73 S7        30.07S
JANESVILLE     SUNNY     68  68 100 CALM      30.08R
$$

WIZ051-052-058>065-066-070>072-241400-
SOUTHEAST WISCONSIN

CITY           SKY/WX    TMP DP  RH WIND       PRES   REMARKS
MILWAUKEE      SUNNY     73  69  87 SE3       30.09R FOG
WAUKESHA       SUNNY     64  63  94 CALM      30.11R
MILWAUKEE/TIMM SUNNY     66  61  82 CALM      30.10R
RACINE         SUNNY     73  71  93 S5        30.11R FOG
BURLINGTON     SUNNY     62  62 100 CALM      30.09S FOG
KENOSHA        SUNNY     71  68  90 CALM      30.10R FOG
FOND DU LAC    SUNNY     69  64  84 S3        30.08S
SHEBOYGAN      SUNNY     68  68 100 CALM      30.09S FOG
WEST BEND        N/A     61  61 100 CALM      30.09S
JUNEAU         SUNNY     67  64  89 SE3       30.09S
$$

LSZ147-162-241400-
LAKE SUPERIOR

STATION/POSITION TIME  TEMP    WIND        PRES    WAVE
                       AIR SEA DIR/SP/G            HT/PER
                 (UTC) (F)     (DEG/KT/KT) (MB)    (FT/S)
W MID LAKE BUOY  1150   58 55   10/ 10/ 12 1014.8R   1
DEVILS ISLAND    1200   62      90/  7/  8 1014.5F
PORT WING        1030   64      40/  7/  9 1014.6
SAXON HARBOR     1240   71     200/  4/  6 1014.6R
$$

LMZ867-665-643>646-241400-
LAKE MICHIGAN

STATION/POSITION TIME  TEMP    WIND        PRES    WAVE
                       AIR SEA DIR/SP/G            HT/PER
                 (UTC) (F)     (DEG/KT/KT) (MB)    (FT/S)
S GREEN BAY BUOY 1230   70 68  180/  4/  4 1018.0R
N MID LAKE BUOY  1150   69 66  180/  8/  8 1019.1R   1/ 3
NORTHPORT PIER   1240   71     160/  5/  7 1018.3S
KEWAUNEE LAKESHO 1224   66     180/  9/ 10 1017.9
SHEBOYGAN LAKESH 1200   69     180/  6/  6 1018.4R
PORT WASHINGTON  1240   72     230/  1/  3 1019.6S
ATWATER BUOY     1109   67 65  150/  4/  4 1018.8R
MILWAUKEE LAKESH 1230   73        CALM       N/A
S MID LAKE BUOY  1150   72 71  120/ 12/ 14 1018.8R   1
KENOSHA   LAKESH 1200   71     190/  1/  3 1018.6
$$

TC  - TEMPERATURE IN CELSIUS
VSB - VISIBILITY IN STATUTE MILES
WCI - WIND CHILL INDEX
HX  - HEAT INDEX





USA.gov is the U.S. government's official web portal to all federal, state and local government web resources and services.